| time (UTC) | temp C | wind direction | speed KPH | gust KPH | rain 1hr cm | rain 24hr cm | rain mn cm | humidity % | barometer mb |
| 20260901193959 | 30 | 345 | 4.8 | 12.9 | 0.00 | 0.00 | 0.00 | 82 | 1012.8 |
| 20260901193459 | 30 | 213 | 3.2 | 12.9 | 0.00 | 0.00 | 0.00 | 83 | 1012.9 |
| 20260901192959 | 29 | 248 | 1.6 | 9.7 | 0.00 | 0.00 | 0.00 | 83 | 1012.9 |
| 20260901192459 | 29 | 315 | 3.2 | 9.7 | 0.00 | 0.00 | 0.00 | 83 | 1012.9 |
| 20260901191959 | 30 | 291 | 3.2 | 8.0 | 0.00 | 0.00 | 0.00 | 82 | 1013.0 |
| 20260901191459 | 30 | 138 | 1.6 | 11.3 | 0.00 | 0.00 | 0.00 | 82 | 1012.9 |
| 20260901190959 | 30 | 230 | 4.8 | 11.3 | 0.00 | 0.00 | 0.00 | 81 | 1013.0 |
| 20260901190459 | 30 | 244 | 3.2 | 8.0 | 0.00 | 0.00 | 0.00 | 80 | 1013.0 |
| 20260901190000 | 30 | 215 | 4.8 | 8.0 | 0.00 | 0.00 | 0.00 | 81 | 1013.0 |
| 20260901185459 | 30 | 313 | 4.8 | 8.0 | 0.00 | 0.00 | 0.00 | 83 | 1012.9 |
| 20260901184958 | 29 | 315 | 1.6 | 6.4 | 0.00 | 0.00 | 0.00 | 84 | 1013.0 |
| 20260901184458 | 29 | 314 | 0.0 | 6.4 | 0.00 | 0.00 | 0.00 | 83 | 1013.0 |
| 20260901183959 | 29 | 266 | 1.6 | 6.4 | 0.00 | 0.00 | 0.00 | 83 | 1013.0 |
| 20260901183458 | 29 | 247 | 1.6 | 6.4 | 0.00 | 0.00 | 0.00 | 83 | 1013.0 |
| 20260901182959 | 29 | 238 | 1.6 | 11.3 | 0.00 | 0.00 | 0.00 | 83 | 1013.0 |
| 20260901182459 | 29 | 212 | 3.2 | 11.3 | 0.00 | 0.00 | 0.00 | 82 | 1013.1 |
| 20260901181959 | 30 | 226 | 3.2 | 9.7 | 0.00 | 0.00 | 0.00 | 80 | 1013.1 |
| 20260901181459 | 30 | 271 | 4.8 | 12.9 | 0.00 | 0.00 | 0.00 | 80 | 1013.1 |
| 20260901180959 | 30 | 266 | 4.8 | 12.9 | 0.00 | 0.00 | 0.00 | 81 | 1013.1 |
| 20260901180458 | 30 | 250 | 4.8 | 11.3 | 0.00 | 0.00 | 0.00 | 81 | 1013.0 |
| 20260901180001 | 30 | 335 | 3.2 | 8.0 | 0.00 | 0.00 | 0.00 | 81 | 1013.0 |
| 20260901175459 | 30 | 216 | 3.2 | 6.4 | 0.00 | 0.00 | 0.00 | 82 | 1013.2 |
| 20260901174959 | 29 | 342 | 1.6 | 11.3 | 0.00 | 0.00 | 0.00 | 83 | 1013.2 |
| 20260901174459 | 29 | 250 | 4.8 | 11.3 | 0.00 | 0.00 | 0.00 | 82 | 1013.3 |
| 20260901174000 | 29 | 177 | 3.2 | 12.9 | 0.00 | 0.00 | 0.00 | 81 | 1013.3 |
| 20260901173459 | 30 | 230 | 6.4 | 11.3 | 0.00 | 0.00 | 0.00 | 82 | 1013.3 |
| 20260901172959 | 30 | 309 | 3.2 | 9.7 | 0.00 | 0.00 | 0.00 | 80 | 1013.3 |
| 20260901161500 | 28 | 240 | 1.6 | 3.2 | 0.00 | 0.00 | 0.00 | 84 | 1013.4 |
| 20260901160959 | 28 | 174 | 1.6 | 4.8 | 0.00 | 0.00 | 0.00 | 84 | 1013.4 |
| 20260901160459 | 27 | 212 | 0.0 | 3.2 | 0.00 | 0.00 | 0.00 | 84 | 1013.4 |
| 20260901160000 | 27 | 228 | 1.6 | 6.4 | 0.00 | 0.00 | 0.00 | 84 | 1013.3 |
| 20260901155459 | 28 | 200 | 0.0 | 6.4 | 0.00 | 0.00 | 0.00 | 82 | 1013.4 |
| 20260901154959 | 28 | 315 | 0.0 | 1.6 | 0.00 | 0.00 | 0.00 | 82 | 1013.4 |
| 20260901154459 | 28 | 266 | 0.0 | 3.2 | 0.00 | 0.00 | 0.00 | 84 | 1013.4 |
| 20260901150959 | 27 | 239 | 1.6 | 4.8 | 0.00 | 0.00 | 0.00 | 84 | 1013.4 |
| 20260901150459 | 27 | 230 | 1.6 | 9.7 | 0.00 | 0.00 | 0.00 | 85 | 1013.5 |
| 20260901150001 | 27 | 225 | 1.6 | 9.7 | 0.00 | 0.23 | 0.00 | 85 | 1013.6 |
| 20260901145459 | 27 | 336 | 3.2 | 6.4 | 0.00 | 0.23 | 0.00 | 84 | 1013.6 |
| 20260901144959 | 27 | 232 | 1.6 | 6.4 | 0.00 | 0.23 | 0.00 | 86 | 1013.5 |
| 20260901144459 | 26 | 199 | 1.6 | 6.4 | 0.00 | 0.23 | 0.00 | 85 | 1013.5 |
| 20260901143959 | 26 | 324 | 1.6 | 6.4 | 0.00 | 0.23 | 0.00 | 87 | 1013.6 |
| 20260901143458 | 26 | 281 | 1.6 | 6.4 | 0.00 | 0.23 | 0.00 | 86 | 1013.5 |
| 20260901142959 | 26 | 226 | 1.6 | 8.0 | 0.00 | 0.23 | 0.00 | 85 | 1013.5 |
| 20260901142500 | 27 | 232 | 3.2 | 8.0 | 0.00 | 0.23 | 0.00 | 85 | 1013.5 |
| 20260901141959 | 26 | 320 | 3.2 | 12.9 | 0.00 | 0.23 | 0.00 | 86 | 1013.4 |
| 20260901141459 | 26 | 196 | 3.2 | 12.9 | 0.00 | 0.23 | 0.00 | 86 | 1013.5 |
| 20260901140959 | 26 | 219 | 3.2 | 8.0 | 0.00 | 0.23 | 0.00 | 87 | 1013.5 |
| 20260901140500 | 26 | 295 | 3.2 | 6.4 | 0.00 | 0.23 | 0.00 | 87 | 1013.6 |
| 20260901135959 | 25 | 314 | 3.2 | 6.4 | 0.00 | 0.28 | 0.00 | 87 | 1013.4 |
| 20260901135459 | 25 | 319 | 3.2 | 4.8 | 0.00 | 0.28 | 0.00 | 88 | 1013.3 |
| 20260901134959 | 25 | 287 | 1.6 | 8.0 | 0.00 | 0.28 | 0.00 | 89 | 1013.3 |
| 20260901134500 | 25 | 234 | 0.0 | 8.0 | 0.00 | 0.28 | 0.00 | 90 | 1013.4 |
| 20260901133959 | 24 | 205 | 3.2 | 4.8 | 0.00 | 0.28 | 0.00 | 90 | 1013.5 |
| 20260901133459 | 24 | 226 | 3.2 | 4.8 | 0.00 | 0.28 | 0.00 | 91 | 1013.5 |
| 20260901132959 | 24 | 222 | 1.6 | 8.0 | 0.00 | 0.28 | 0.00 | 91 | 1013.5 |
| 20260901132459 | 23 | 223 | 3.2 | 8.0 | 0.00 | 0.28 | 0.00 | 91 | 1013.5 |
| 20260901131959 | 23 | 197 | 3.2 | 6.4 | 0.00 | 0.28 | 0.00 | 92 | 1013.5 |
| 20260901131459 | 23 | 221 | 1.6 | 6.4 | 0.00 | 0.28 | 0.00 | 92 | 1013.5 |
| 20260901130959 | 23 | 199 | 1.6 | 9.7 | 0.00 | 0.28 | 0.00 | 92 | 1013.5 |
| 20260901130459 | 23 | 241 | 1.6 | 9.7 | 0.00 | 0.28 | 0.00 | 92 | 1013.3 |
| 20260901130002 | 22 | 233 | 3.2 | 6.4 | 0.00 | 0.28 | 0.00 | 92 | 1013.4 |
| 20260901125458 | 22 | 225 | 1.6 | 4.8 | 0.00 | 0.28 | 0.00 | 92 | 1013.5 |
| 20260901124959 | 21 | 223 | 1.6 | 4.8 | 0.00 | 0.28 | 0.00 | 92 | 1013.5 |
| 20260901124459 | 21 | 199 | 1.6 | 3.2 | 0.00 | 0.28 | 0.00 | 92 | 1013.6 |
| 20260901123958 | 20 | 276 | 0.0 | 1.6 | 0.00 | 0.28 | 0.00 | 92 | 1013.4 |
| 20260901123459 | 20 | 276 | 0.0 | 1.6 | 0.00 | 0.28 | 0.00 | 92 | 1013.5 |
| 20260901122959 | 20 | 276 | 0.0 | 0.0 | 0.00 | 0.28 | 0.00 | 91 | 1013.3 |
| 20260901122459 | 20 | 276 | 0.0 | 0.0 | 0.00 | 0.28 | 0.00 | 91 | 1013.5 |
| 20260901121959 | 20 | 276 | 0.0 | 0.0 | 0.00 | 0.28 | 0.00 | 91 | 1013.5 |
| 20260901121458 | 20 | 276 | 0.0 | 0.0 | 0.00 | 0.28 | 0.00 | 91 | 1013.4 |
| 20260901120958 | 19 | 276 | 0.0 | 0.0 | 0.00 | 0.28 | 0.00 | 91 | 1013.3 |
| 20260901120459 | 19 | 276 | 0.0 | 0.0 | 0.00 | 0.28 | 0.00 | 91 | 1013.1 |
| 20260901120000 | 19 | 276 | 0.0 | 0.0 | 0.00 | 0.28 | 0.00 | 91 | 1013.0 |
| 20260901115459 | 19 | 276 | 0.0 | 0.0 | 0.00 | 0.28 | 0.00 | 91 | 1013.0 |
| 20260901114959 | 19 | 276 | 0.0 | 0.0 | 0.00 | 0.28 | 0.00 | 91 | 1013.0 |
| 20260901114459 | 19 | 276 | 0.0 | 0.0 | 0.00 | 0.28 | 0.00 | 91 | 1012.9 |
| 20260901113958 | 19 | 276 | 0.0 | 0.0 | 0.00 | 0.28 | 0.00 | 91 | 1012.8 |
| 20260901113500 | 19 | 276 | 0.0 | 0.0 | 0.00 | 0.28 | 0.00 | 91 | 1012.7 |
| 20260901112958 | 19 | 276 | 0.0 | 0.0 | 0.00 | 0.28 | 0.00 | 91 | 1012.6 |
| 20260901112459 | 19 | 276 | 0.0 | 0.0 | 0.00 | 0.28 | 0.00 | 91 | 1012.7 |
| 20260901111959 | 19 | 276 | 0.0 | 0.0 | 0.00 | 0.28 | 0.00 | 91 | 1012.6 |
| 20260901111459 | 19 | 276 | 0.0 | 0.0 | 0.00 | 0.28 | 0.00 | 91 | 1012.6 |
| 20260901110959 | 19 | 276 | 0.0 | 0.0 | 0.00 | 0.28 | 0.00 | 91 | 1012.6 |
| 20260901110459 | 20 | 276 | 0.0 | 0.0 | 0.00 | 0.28 | 0.00 | 90 | 1012.6 |
| 20260901105959 | 20 | 276 | 0.0 | 0.0 | 0.00 | 0.28 | 0.00 | 90 | 1012.5 |
| 20260901105459 | 20 | 276 | 0.0 | 0.0 | 0.00 | 0.28 | 0.00 | 90 | 1012.5 |
| 20260901104959 | 20 | 276 | 0.0 | 0.0 | 0.00 | 0.28 | 0.00 | 90 | 1012.5 |
| 20260901104458 | 20 | 276 | 0.0 | 0.0 | 0.00 | 0.28 | 0.00 | 90 | 1012.4 |
| 20260901103958 | 20 | 276 | 0.0 | 0.0 | 0.00 | 0.28 | 0.00 | 90 | 1012.4 |
| 20260901103459 | 20 | 276 | 0.0 | 0.0 | 0.00 | 0.28 | 0.00 | 90 | 1012.4 |
| 20260901102959 | 20 | 276 | 0.0 | 0.0 | 0.00 | 0.28 | 0.00 | 90 | 1012.5 |
| 20260901102458 | 20 | 276 | 0.0 | 0.0 | 0.00 | 0.28 | 0.00 | 90 | 1012.5 |
| 20260901101959 | 20 | 276 | 0.0 | 0.0 | 0.00 | 0.28 | 0.00 | 90 | 1012.5 |
| 20260901101458 | 20 | 276 | 0.0 | 1.6 | 0.00 | 0.28 | 0.00 | 90 | 1012.5 |
| 20260901100959 | 20 | 276 | 0.0 | 1.6 | 0.00 | 0.28 | 0.00 | 91 | 1012.5 |
| 20260901100458 | 20 | 276 | 0.0 | 0.0 | 0.00 | 0.28 | 0.00 | 90 | 1012.5 |
| 20260901100001 | 20 | 276 | 0.0 | 0.0 | 0.00 | 0.28 | 0.00 | 90 | 1012.5 |
| 20260901095459 | 20 | 276 | 0.0 | 0.0 | 0.00 | 0.28 | 0.00 | 90 | 1012.5 |
| 20260901094959 | 20 | 276 | 0.0 | 0.0 | 0.00 | 0.28 | 0.00 | 90 | 1012.4 |
| 20260901094459 | 20 | 276 | 0.0 | 0.0 | 0.00 | 0.28 | 0.00 | 90 | 1012.3 |
| 20260901093959 | 20 | 276 | 0.0 | 0.0 | 0.00 | 0.28 | 0.00 | 90 | 1012.4 |
| 20260901093459 | 20 | 276 | 0.0 | 0.0 | 0.00 | 0.28 | 0.00 | 90 | 1012.4 |
| 20260901092959 | 20 | 276 | 0.0 | 0.0 | 0.00 | 0.28 | 0.00 | 90 | 1012.4 |
| 20260901092458 | 20 | 276 | 0.0 | 0.0 | 0.00 | 0.28 | 0.00 | 90 | 1012.4 |
| 20260901091958 | 20 | 276 | 0.0 | 0.0 | 0.00 | 0.28 | 0.00 | 90 | 1012.4 |
| 20260901091458 | 20 | 276 | 0.0 | 0.0 | 0.00 | 0.28 | 0.00 | 90 | 1012.4 |
| 20260901090958 | 21 | 276 | 0.0 | 0.0 | 0.00 | 0.28 | 0.00 | 90 | 1012.4 |
| 20260901090459 | 21 | 276 | 0.0 | 0.0 | 0.00 | 0.28 | 0.00 | 90 | 1012.4 |
| 20260901090000 | 21 | 276 | 0.0 | 0.0 | 0.00 | 0.28 | 0.00 | 90 | 1012.4 |
| 20260901085459 | 21 | 276 | 0.0 | 0.0 | 0.00 | 0.28 | 0.00 | 90 | 1012.4 |
| 20260901084959 | 21 | 276 | 0.0 | 0.0 | 0.00 | 0.28 | 0.00 | 90 | 1012.4 |
| 20260901084458 | 21 | 276 | 0.0 | 0.0 | 0.00 | 0.28 | 0.00 | 90 | 1012.3 |
| 20260901083959 | 21 | 276 | 0.0 | 0.0 | 0.00 | 0.28 | 0.00 | 90 | 1012.4 |
| 20260901083458 | 21 | 276 | 0.0 | 0.0 | 0.00 | 0.28 | 0.00 | 90 | 1012.4 |
| 20260901082959 | 21 | 276 | 0.0 | 0.0 | 0.00 | 0.28 | 0.00 | 90 | 1012.4 |
| 20260901082458 | 21 | 276 | 0.0 | 0.0 | 0.00 | 0.28 | 0.00 | 90 | 1012.4 |
| 20260901081958 | 21 | 276 | 0.0 | 0.0 | 0.00 | 0.28 | 0.00 | 90 | 1012.4 |
| 20260901081458 | 21 | 276 | 0.0 | 0.0 | 0.00 | 0.28 | 0.00 | 90 | 1012.5 |
| 20260901080958 | 21 | 276 | 0.0 | 0.0 | 0.00 | 0.28 | 0.00 | 90 | 1012.3 |
| 20260901080458 | 21 | 276 | 0.0 | 0.0 | 0.00 | 0.28 | 0.00 | 90 | 1012.3 |
| 20260901075958 | 21 | 276 | 0.0 | 0.0 | 0.00 | 0.28 | 0.00 | 90 | 1012.3 |
| 20260901075459 | 21 | 276 | 0.0 | 0.0 | 0.00 | 0.28 | 0.00 | 90 | 1012.3 |
| 20260901074958 | 21 | 276 | 0.0 | 0.0 | 0.00 | 0.28 | 0.00 | 89 | 1012.2 |
| 20260901063958 | 21 | 303 | 0.0 | 0.0 | 0.00 | 0.28 | 0.00 | 88 | 1012.1 |
| 20260901063458 | 21 | 303 | 0.0 | 0.0 | 0.00 | 0.28 | 0.00 | 88 | 1012.3 |
| 20260901062958 | 21 | 303 | 0.0 | 0.0 | 0.00 | 0.28 | 0.00 | 88 | 1012.2 |
| 20260901062458 | 21 | 303 | 0.0 | 0.0 | 0.00 | 0.28 | 0.00 | 88 | 1012.2 |
| 20260901061958 | 21 | 303 | 0.0 | 0.0 | 0.00 | 0.28 | 0.00 | 88 | 1012.2 |
| 20260901061458 | 21 | 303 | 0.0 | 0.0 | 0.00 | 0.28 | 0.00 | 88 | 1012.2 |
| 20260901060959 | 21 | 303 | 0.0 | 0.0 | 0.00 | 0.28 | 0.00 | 88 | 1012.2 |
| 20260901053459 | 22 | 303 | 0.0 | 1.6 | 0.00 | 0.28 | 0.00 | 88 | 1012.5 |
| 20260901052958 | 22 | 320 | 0.0 | 0.0 | 0.00 | 0.28 | 0.00 | 88 | 1012.5 |
| 20260901052459 | 22 | 320 | 0.0 | 3.2 | 0.00 | 0.28 | 0.00 | 88 | 1012.5 |
| 20260901052000 | 22 | 320 | 0.0 | 3.2 | 0.00 | 0.28 | 0.00 | 88 | 1012.4 |
| 20260901051458 | 22 | 299 | 0.0 | 1.6 | 0.00 | 0.28 | 0.00 | 87 | 1012.5 |
| 20260901050958 | 22 | 299 | 0.0 | 1.6 | 0.00 | 0.28 | 0.00 | 87 | 1012.4 |
| 20260901050458 | 22 | 299 | 0.0 | 1.6 | 0.00 | 0.28 | 0.00 | 87 | 1012.4 |
| 20260901045959 | 22 | 299 | 0.0 | 1.6 | 0.00 | 0.28 | 0.00 | 86 | 1012.4 |
| 20260901045459 | 22 | 299 | 0.0 | 0.0 | 0.00 | 0.28 | 0.00 | 86 | 1012.5 |
| 20260901044958 | 22 | 299 | 0.0 | 0.0 | 0.00 | 0.28 | 0.00 | 86 | 1012.5 |
| 20260901044459 | 22 | 299 | 0.0 | 0.0 | 0.00 | 0.28 | 0.00 | 86 | 1012.4 |
| 20260901043959 | 22 | 299 | 0.0 | 0.0 | 0.00 | 0.28 | 0.00 | 86 | 1012.4 |
| 20260901043458 | 22 | 299 | 0.0 | 0.0 | 0.00 | 0.28 | 0.00 | 86 | 1012.4 |
| 20260901042959 | 22 | 299 | 0.0 | 0.0 | 0.00 | 0.28 | 0.00 | 86 | 1012.4 |
| 20260901042459 | 22 | 299 | 0.0 | 0.0 | 0.00 | 0.28 | 0.00 | 86 | 1012.4 |
| 20260901041958 | 23 | 299 | 0.0 | 0.0 | 0.00 | 0.28 | 0.00 | 86 | 1012.5 |
| 20260901041459 | 23 | 299 | 0.0 | 0.0 | 0.00 | 0.28 | 0.00 | 86 | 1012.5 |
| 20260901040959 | 23 | 299 | 0.0 | 1.6 | 0.00 | 0.28 | 0.00 | 86 | 1012.5 |
| 20260901040459 | 23 | 299 | 0.0 | 1.6 | 0.00 | 0.28 | 0.00 | 86 | 1012.6 |
| 20260901040005 | 23 | 299 | 0.0 | 0.0 | 0.00 | 0.28 | 0.00 | 86 | 1012.6 |
| 20260901035459 | 23 | 299 | 0.0 | 0.0 | 0.00 | 0.28 | 0.28 | 86 | 1012.7 |
| 20260901035000 | 23 | 299 | 0.0 | 0.0 | 0.00 | 0.28 | 0.28 | 86 | 1012.5 |
| 20260901034459 | 23 | 299 | 0.0 | 1.6 | 0.00 | 0.28 | 0.28 | 86 | 1012.6 |
| 20260901034000 | 23 | 349 | 0.0 | 1.6 | 0.00 | 0.28 | 0.28 | 86 | 1012.7 |
| 20260901033459 | 23 | 349 | 0.0 | 1.6 | 0.00 | 0.28 | 0.28 | 86 | 1012.6 |
| 20260901032959 | 23 | 349 | 0.0 | 3.2 | 0.00 | 0.28 | 0.28 | 86 | 1012.6 |
| 20260901032459 | 23 | 221 | 0.0 | 3.2 | 0.00 | 0.28 | 0.28 | 85 | 1012.4 |
| 20260901031959 | 23 | 228 | 0.0 | 1.6 | 0.00 | 0.28 | 0.28 | 85 | 1012.5 |
| 20260901031459 | 24 | 227 | 0.0 | 1.6 | 0.00 | 0.28 | 0.28 | 85 | 1012.5 |
| 20260901031000 | 24 | 226 | 0.0 | 3.2 | 0.00 | 0.28 | 0.28 | 85 | 1012.7 |
| 20260901030500 | 24 | 232 | 0.0 | 3.2 | 0.00 | 0.28 | 0.28 | 85 | 1012.6 |
| 20260901030000 | 24 | 290 | 0.0 | 3.2 | 0.00 | 0.28 | 0.28 | 85 | 1012.6 |
| 20260901025500 | 24 | 307 | 0.0 | 1.6 | 0.00 | 0.28 | 0.28 | 85 | 1012.7 |
| 20260901021959 | 24 | 286 | 4.8 | 14.5 | 0.00 | 0.28 | 0.28 | 85 | 1012.3 |
| 20260901021459 | 24 | 242 | 0.0 | 6.4 | 0.00 | 0.28 | 0.28 | 85 | 1012.4 |
| 20260901020959 | 24 | 243 | 0.0 | 4.8 | 0.00 | 0.28 | 0.28 | 84 | 1012.6 |
| 20260901020459 | 24 | 207 | 1.6 | 4.8 | 0.00 | 0.28 | 0.28 | 84 | 1012.5 |
| 20260901015959 | 25 | 280 | 0.0 | 1.6 | 0.00 | 0.28 | 0.28 | 84 | 1012.5 |
| 20260901015459 | 25 | 327 | 0.0 | 1.6 | 0.00 | 0.28 | 0.28 | 84 | 1012.4 |
| 20260901014959 | 25 | 226 | 0.0 | 1.6 | 0.00 | 0.28 | 0.28 | 84 | 1012.4 |
| 20260901014459 | 25 | 225 | 0.0 | 1.6 | 0.00 | 0.28 | 0.28 | 84 | 1012.4 |
| 20260901014000 | 25 | 245 | 0.0 | 1.6 | 0.00 | 0.28 | 0.28 | 84 | 1012.5 |
| 20260901013459 | 25 | 245 | 0.0 | 3.2 | 0.00 | 0.28 | 0.28 | 84 | 1012.3 |
| 20260901012959 | 25 | 245 | 0.0 | 4.8 | 0.00 | 0.28 | 0.28 | 84 | 1012.4 |
| 20260901012459 | 25 | 288 | 1.6 | 4.8 | 0.00 | 0.28 | 0.28 | 84 | 1012.4 |
| 20260901011958 | 25 | 313 | 1.6 | 4.8 | 0.00 | 0.28 | 0.28 | 83 | 1012.4 |
| 20260901011459 | 25 | 234 | 1.6 | 4.8 | 0.00 | 0.28 | 0.28 | 83 | 1012.3 |
| 20260901010959 | 25 | 262 | 0.0 | 4.8 | 0.00 | 0.28 | 0.28 | 83 | 1012.3 |
| 20260901010459 | 25 | 296 | 3.2 | 6.4 | 0.00 | 0.28 | 0.28 | 83 | 1012.1 |
| 20260901010000 | 25 | 201 | 1.6 | 6.4 | 0.00 | 0.28 | 0.28 | 83 | 1012.2 |
| 20260901005459 | 25 | 209 | 0.0 | 4.8 | 0.00 | 0.28 | 0.28 | 83 | 1012.2 |
| 20260901004959 | 25 | 192 | 1.6 | 4.8 | 0.00 | 0.28 | 0.28 | 83 | 1012.2 |
| 20260901004459 | 25 | 238 | 1.6 | 6.4 | 0.00 | 0.28 | 0.28 | 83 | 1012.3 |
| 20260901003959 | 25 | 200 | 3.2 | 6.4 | 0.00 | 0.28 | 0.28 | 83 | 1012.3 |
| 20260901003459 | 25 | 296 | 0.0 | 8.0 | 0.00 | 0.28 | 0.28 | 83 | 1012.3 |
| 20260901002959 | 25 | 251 | 3.2 | 4.8 | 0.00 | 0.28 | 0.28 | 83 | 1012.3 |
| 20260901002459 | 25 | 266 | 1.6 | 6.4 | 0.00 | 0.28 | 0.28 | 83 | 1012.3 |
| 20260901001959 | 25 | 241 | 3.2 | 6.4 | 0.00 | 0.28 | 0.28 | 83 | 1012.3 |
| 20260901001459 | 25 | 212 | 1.6 | 8.0 | 0.00 | 0.28 | 0.28 | 83 | 1012.2 |
| 20260901001000 | 25 | 343 | 3.2 | 9.7 | 0.00 | 0.28 | 0.28 | 83 | 1012.1 |
| 20260901000459 | 25 | 219 | 1.6 | 4.8 | 0.00 | 0.28 | 0.28 | 83 | 1012.1 |
| 20260901000001 | 25 | 230 | 1.6 | 8.0 | 0.00 | 0.28 | 0.28 | 83 | 1012.0 |
| 20260831235500 | 25 | 197 | 3.2 | 8.0 | 0.00 | 0.28 | 0.28 | 84 | 1011.9 |
| 20260831235000 | 25 | 207 | 1.6 | 6.4 | 0.00 | 0.28 | 0.28 | 84 | 1011.8 |
| 20260831234501 | 25 | 213 | 1.6 | 4.8 | 0.00 | 0.28 | 0.28 | 84 | 1011.9 |
| 20260831234000 | 26 | 180 | 0.0 | 4.8 | 0.00 | 0.28 | 0.28 | 84 | 1011.9 |
| 20260831233504 | 26 | 244 | 0.0 | 1.6 | 0.00 | 0.28 | 0.28 | 84 | 1011.9 |
| 20260831233000 | 26 | 222 | 0.0 | 1.6 | 0.00 | 0.28 | 0.28 | 84 | 1011.8 |
| 20260831232500 | 26 | 222 | 0.0 | 0.0 | 0.00 | 0.28 | 0.28 | 84 | 1011.8 |
| 20260831231959 | 26 | 222 | 0.0 | 4.8 | 0.00 | 0.28 | 0.28 | 84 | 1011.9 |
| 20260831231500 | 26 | 222 | 0.0 | 4.8 | 0.00 | 0.28 | 0.28 | 83 | 1012.0 |
| 20260831231000 | 26 | 185 | 0.0 | 4.8 | 0.00 | 0.28 | 0.28 | 83 | 1012.0 |
| 20260831230501 | 26 | 205 | 1.6 | 4.8 | 0.00 | 0.28 | 0.28 | 83 | 1011.9 |
| 20260831225959 | 26 | 232 | 0.0 | 4.8 | 0.00 | 0.28 | 0.28 | 83 | 1011.9 |
| 20260831225459 | 26 | 234 | 1.6 | 4.8 | 0.00 | 0.28 | 0.28 | 83 | 1011.8 |
| 20260831224959 | 26 | 174 | 0.0 | 4.8 | 0.00 | 0.28 | 0.28 | 82 | 1011.7 |
| 20260831224459 | 26 | 196 | 1.6 | 6.4 | 0.00 | 0.28 | 0.28 | 82 | 1011.8 |
| 20260831224000 | 26 | 276 | 0.0 | 9.7 | 0.00 | 0.28 | 0.28 | 82 | 1011.6 |
| 20260831223459 | 26 | 192 | 1.6 | 6.4 | 0.00 | 0.28 | 0.28 | 81 | 1011.6 |
| 20260831215459 | 27 | 260 | 4.8 | 19.3 | 0.00 | 0.28 | 0.28 | 75 | 1011.7 |
| 20260831214959 | 27 | 205 | 3.2 | 12.9 | 0.00 | 0.28 | 0.28 | 75 | 1011.8 |
| 20260831214458 | 27 | 203 | 3.2 | 12.9 | 0.00 | 0.28 | 0.28 | 76 | 1011.7 |
| 20260831213959 | 27 | 184 | 8.0 | 14.5 | 0.00 | 0.28 | 0.28 | 74 | 1011.7 |
| 20260831213500 | 27 | 159 | 1.6 | 12.9 | 0.00 | 0.28 | 0.28 | 78 | 1011.8 |
| 20260831212959 | 27 | 30 | 1.6 | 12.9 | 0.00 | 0.28 | 0.28 | 75 | 1011.8 |
| 20260831212459 | 27 | 297 | 3.2 | 11.3 | 0.00 | 0.28 | 0.28 | 75 | 1011.7 |
| 20260831211802 | 27 | 176 | 4.8 | 16.1 | 0.00 | 0.28 | 0.28 | 74 | 1011.7 |
| 20260831211303 | 27 | 196 | 3.2 | 12.9 | 0.00 | 0.28 | 0.28 | 75 | 1011.7 |
| 20260831210803 | 27 | 151 | 4.8 | 17.7 | 0.00 | 0.28 | 0.28 | 74 | 1011.7 |
| 20260831210302 | 27 | 228 | 6.4 | 17.7 | 0.00 | 0.28 | 0.28 | 73 | 1011.7 |
| 20260831205802 | 27 | 187 | 4.8 | 14.5 | 0.00 | 0.28 | 0.28 | 74 | 1011.8 |
| 20260831205305 | 27 | 207 | 4.8 | 16.1 | 0.00 | 0.28 | 0.28 | 73 | 1011.8 |